Location: Unspecified
(41.2536°N, 0.0000°E)
Time: 15:42:25
(UTC+00:00)

Transit 4A - All Passes

Search period start: 04 April 2026 00:00
Search period end: 14 April 2026 00:00
Orbit: 863 x 978 km, 66.8° (Epoch: 29 March)

Date Brightness Start Highest point End Pass type
(mag) Time Alt. Az. Time Alt. Az. Time Alt. Az.
4 Apr - 00:04:03 10° N 00:06:58 13° NNE 00:09:52 10° ENE visible
4 Apr - 01:48:36 10° NNW 01:54:50 53° NE 02:01:03 10° SE visible
4 Apr - 03:35:32 10° NW 03:40:50 28° WSW 03:46:09 10° SSW visible
4 Apr - 16:54:51 10° SSW 17:00:44 68° ESE 17:06:51 10° NE daylight
4 Apr - 18:42:49 10° W 18:47:38 24° NW 18:52:35 10° N daylight
5 Apr - 00:12:08 10° N 00:16:13 17° NE 00:20:17 10° ENE visible
5 Apr - 01:57:15 10° NNW 02:03:40 74° ENE 02:10:03 10° SE visible
5 Apr - 03:45:02 10° WNW 03:49:19 19° WSW 03:53:36 10° SSW visible
5 Apr - 15:20:52 10° SE 15:24:01 15° ESE 15:27:13 10° ENE daylight
5 Apr - 17:03:28 10° SSW 17:09:27 84° WNW 17:15:39 10° NNE daylight
5 Apr - 18:52:41 10° W 18:56:45 18° NW 19:00:56 10° N visible
6 Apr - 00:20:27 10° N 00:25:22 23° NE 00:30:18 10° E visible
6 Apr - 02:06:01 10° NNW 02:12:25 79° WSW 02:18:48 10° SSE visible
6 Apr - 03:55:24 10° WNW 03:57:44 12° W 04:00:04 10° WSW visible
6 Apr - 15:27:56 10° SSE 15:32:27 23° ESE 15:37:04 10° NE daylight
6 Apr - 17:12:21 10° SW 17:18:14 59° WNW 17:24:22 10° NNE daylight
6 Apr - 19:02:56 10° WNW 19:05:59 14° NNW 19:09:05 10° N visible
7 Apr - 00:28:53 10° NNW 00:34:27 30° NE 00:40:00 10° ESE visible
7 Apr - 02:14:53 10° NW 02:21:06 55° WSW 02:27:18 10° S visible
7 Apr - 15:35:40 10° S 15:40:57 34° ESE 15:46:22 10° NE daylight
7 Apr - 17:21:28 10° WSW 17:27:07 41° NW 17:32:59 10° NNE daylight
7 Apr - 19:14:01 10° NW 19:15:18 11° NNW 19:16:36 10° NNW visible
7 Apr - 22:53:42 10° NNE 22:55:14 11° NNE 22:56:44 10° NE visible
8 Apr - 00:37:25 10° NNW 00:43:26 41° NE 00:49:25 10° ESE visible
8 Apr - 02:23:54 10° NW 02:29:42 38° WSW 02:35:30 10° S visible
8 Apr - 15:43:47 10° S 15:49:31 51° ESE 15:55:27 10° NE daylight
8 Apr - 17:30:51 10° WSW 17:36:05 30° NW 17:41:31 10° NNE daylight
8 Apr - 23:01:18 10° N 23:04:33 14° NE 23:07:47 10° ENE visible
9 Apr - 00:46:01 10° NNW 00:52:19 57° NE 00:58:36 10° SE visible
9 Apr - 02:33:07 10° NW 02:38:14 26° WSW 02:43:20 10° SSW visible
9 Apr - 14:12:51 10° E 14:13:00 10° E 14:13:10 10° E daylight
9 Apr - 15:52:13 10° SSW 15:58:10 75° ESE 16:04:20 10° NNE daylight
9 Apr - 17:40:29 10° W 17:45:10 23° NW 17:49:58 10° N daylight
9 Apr - 23:09:28 10° N 23:13:46 18° NE 23:18:05 10° E visible
10 Apr - 00:54:42 10° NNW 01:01:08 80° ENE 01:07:32 10° SSE visible
10 Apr - 02:42:45 10° WNW 02:46:42 17° WSW 02:50:38 10° SW visible
10 Apr - 14:17:47 10° SE 14:21:23 17° ESE 14:25:02 10° ENE daylight
10 Apr - 16:00:54 10° SW 16:06:54 77° WNW 16:13:07 10° NNE daylight
10 Apr - 17:50:26 10° WNW 17:54:19 17° NW 17:58:17 10° N daylight
10 Apr - 23:17:49 10° N 23:22:55 24° NE 23:28:01 10° E visible
11 Apr - 01:03:29 10° NNW 01:09:52 73° WSW 01:16:13 10° SSE visible
11 Apr - 02:53:46 10° W 02:55:05 11° W 02:56:25 10° WSW visible
11 Apr - 14:25:04 10° SSE 14:29:49 25° ESE 14:34:42 10° NE daylight
11 Apr - 16:09:51 10° SW 16:15:42 54° NW 16:21:48 10° NNE daylight
11 Apr - 18:00:48 10° WNW 18:03:34 13° NNW 18:06:22 10° N daylight
11 Apr - 23:26:17 10° NNW 23:31:57 33° NE 23:37:38 10° ESE visible
12 Apr - 01:12:23 10° NW 01:18:32 50° WSW 01:24:38 10° S visible
12 Apr - 14:32:55 10° S 14:38:19 38° ESE 14:43:56 10° NE daylight
12 Apr - 16:19:02 10° WSW 16:24:37 38° NW 16:30:24 10° NNE daylight
12 Apr - 21:50:44 10° N 21:52:50 12° NNE 21:54:55 10° NE visible
12 Apr - 23:34:49 10° NNW 23:40:56 44° NE 23:46:59 10° SE visible
13 Apr - 01:21:26 10° NW 01:27:07 34° WSW 01:32:46 10° S visible
13 Apr - 14:41:06 10° S 14:46:56 56° ESE 14:52:57 10° NE daylight
13 Apr - 16:28:27 10° WSW 16:33:36 28° NW 16:38:55 10° NNE daylight
13 Apr - 21:58:34 10° N 22:02:07 15° NE 22:05:40 10° ENE visible
13 Apr - 23:43:27 10° NNW 23:49:48 62° ENE 23:56:07 10° SE visible
